[[{"header":{"parameterUnit":"m.s-1","parameterCategory":1,"la1":30.2991,"la2":30.254,"lo1":-89.0895,"lo2":-89.0444,"dy":0.0017,"dx":0.0017,"nx":28,"ny":28,"refTime":"2025-06-20T09:00:00:Z","depth":0,"parameterNumber":2,"parameterNumberName":"U-component_of_WINDS"},"data":[0,0,0,0,0,0,0,0,0,0,0,0,0,0,0,0,0,0,0,0,0,0,0,0,0,0,0,0,0,0,0,0,0,0,0,0,0,0,0,0,0,0,0,0,0,0,0,0,0,0,0,0,0,0,0,0,0,0,0.2439,0.2439,0,0.2517,0.2518,0.2519,0.2534,0.2533,0.2533,0.2532,0.2615,0.2617,0.262,0,0,0,0,0,0,0,0,0,0,0,0,0,0.2304,0.2307,0.2438,0.2439,0.244,0.2517,0.2518,0.2519,0.2534,0.2533,0.2532,0.2532,0.2614,0.2617,0.262,0,0,0,0,0,0,0,0,0,0,0,0,0,0.2371,0.2307,0.2438,0.2457,0.2459,0.2517,0.2518,0.2519,0.2534,0.2533,0.2532,0.2531,0.2613,0.2617,0.2621,0.2666,0,0,0.2634,0.2635,0,0,0,0,0,0,0,0,0.2367,0.2376,0.2453,0.2456,0.2459,0.2515,0.2501,0.2568,0.2534,0.2506,0.2532,0.2531,0.2582,0.2589,0.2606,0.2669,0.2673,0.2634,0.2637,0.2638,0.264,0,0,0,0,0,0,0,0.2362,0.2372,0.247,0.2454,0.2458,0.2462,0.2471,0.2514,0.2549,0.2508,0.251,0.2519,0.2584,0.2602,0.2608,0.2674,0.2634,0.2638,0.264,0.2642,0.2781,0.2782,0,0,0,0,0,0,0.2354,0.2368,0.2467,0.2472,0.2409,0.2466,0.2475,0.2498,0.2548,0.2555,0.2519,0.2519,0.2595,0.2603,0.2611,0.2668,0.2638,0.2642,0.2645,0.278,0.2781,0.2782,0,0,0,0,0,0,0.2351,0.2363,0.2464,0.2421,0.2434,0.2469,0.2494,0.25,0.2518,0.2556,0.2563,0.2531,0.2595,0.2605,0.2652,0.2671,0.2644,0.2648,0.2778,0.278,0.2782,0.2783,0,0,0,0,0,0,0.2347,0.2361,0.2378,0.2421,0.2436,0.2503,0.2495,0.2502,0.2525,0.2525,0.2569,0.2576,0.2595,0.2646,0.2656,0.2677,0.2651,0.2777,0.2779,0.2781,0.2781,0.2784,0.2787,0,0,0,0,0,0.2342,0.2375,0.2379,0.2391,0.2457,0.2504,0.2513,0.2534,0.2526,0.2544,0.2569,0.2574,0.2667,0.2651,0.2663,0.2684,0.2776,0.2778,0.2781,0.278,0.2783,0.2787,0,0,0,0,0,0,0.2335,0.2381,0.2386,0.2433,0.2465,0.2507,0.253,0.2537,0.2571,0.257,0.2595,0.2605,0.2651,0.2672,0.2653,0.2731,0.2721,0.2726,0.2716,0.272,0.2723,0.2718,0.2655,0,0,0,0,0,0.2338,0.2371,0.2411,0.2449,0.2464,0.2494,0.2515,0.2528,0.2562,0.2576,0.2604,0.2637,0.2674,0.2698,0.2734,0.2784,0.2795,0.2805,0.2807,0.281,0.2814,0.2844,0.285,0.2791,0.2791,0.2791,0,0,0.2347,0.2376,0.2396,0.2448,0.2474,0.2509,0.2505,0.2542,0.2569,0.2581,0.2628,0.265,0.2689,0.2738,0.2761,0.2757,0.2833,0.2813,0.2814,0.2818,0.2848,0.2853,0.2858,0.2793,0.2793,0.2792,0,0,0.238,0.2405,0.244,0.2466,0.2505,0.2525,0.2533,0.2575,0.259,0.2637,0.2647,0.268,0.2742,0.277,0.2792,0.2837,0.2844,0.2848,0.2864,0.2893,0.2897,0.2902,0.292,0.2926,0.2852,0.2852,0.2852,0,0.2386,0.2438,0.2458,0.2495,0.2518,0.253,0.2568,0.2592,0.2641,0.2658,0.2652,0.2732,0.2758,0.2815,0.2826,0.2843,0.2855,0.2844,0.2895,0.2899,0.2904,0.2921,0.2928,0.2852,0.2852,0.2852,0.2852,0,0.2445,0.2481,0.2505,0.2552,0.2578,0.2614,0.2641,0.2665,0.2676,0.2696,0.2745,0.2778,0.2821,0.2835,0.2846,0.2895,0.2891,0.289,0.288,0.2909,0.2927,0.2933,0.2853,0.2853,0.2853,0.2853,0,0,0.2477,0.2533,0.2542,0.2564,0.2608,0.2637,0.2675,0.2717,0.2738,0.2772,0.2805,0.2858,0.2858,0.2883,0.2897,0.2922,0.2958,0.2918,0.292,0.2926,0.3016,0.3018,0.3025,0.2962,0.2964,0.2965,0.3013,0,0.2517,0.2584,0.2603,0.2661,0.2695,0.2708,0.2741,0.2772,0.2792,0.2826,0.2848,0.2886,0.2882,0.2897,0.2923,0.2948,0.2977,0.2945,0.2996,0.2998,0.2988,0.3034,0.3036,0.308,0.302,0.3021,0.3022,0,0.2573,0.2608,0.2668,0.2709,0.2724,0.2754,0.2795,0.2826,0.2862,0.2875,0.2904,0.2916,0.2957,0.2944,0.3003,0.2981,0.3002,0.3018,0.3021,0.3028,0.3013,0.3045,0.3095,0.3102,0.3032,0.3031,0.3031,0,0.2593,0.2654,0.2699,0.2717,0.2765,0.2786,0.2807,0.2842,0.2867,0.2903,0.2919,0.2959,0.2982,0.3013,0.3037,0.3025,0.3094,0.3082,0.3108,0.3108,0.3124,0.3123,0.318,0.3134,0.3134,0.3134,0.3134,0,0.2638,0.2675,0.2709,0.2737,0.2779,0.2801,0.2843,0.2865,0.2896,0.2929,0.2942,0.2973,0.3,0.3036,0.3054,0.3101,0.3111,0.3124,0.3129,0.3124,0.3123,0.314,0.3139,0.3136,0.3135,0.3135,0.3135,0,0.2668,0.2692,0.2742,0.2783,0.2794,0.2824,0.286,0.2888,0.2909,0.2951,0.2962,0.2995,0.3037,0.3063,0.3116,0.3129,0.3181,0.3184,0.3169,0.3172,0.3197,0.3195,0.3269,0.3281,0.3225,0.3225,0.3226,0,0.2696,0.2725,0.277,0.2792,0.2814,0.285,0.2875,0.2897,0.2923,0.2967,0.2991,0.3033,0.3069,0.3136,0.3166,0.3207,0.3212,0.3235,0.3219,0.3214,0.3216,0.3214,0.3218,0.3239,0.324,0.324,0.324,0,0.2744,0.2755,0.279,0.2829,0.2859,0.2891,0.2924,0.2942,0.297,0.2999,0.3042,0.3069,0.3124,0.3167,0.3211,0.3234,0.3243,0.3245,0.3254,0.325,0.3241,0.3249,0.3179,0.3244,0.3243,0.3243,0.3243,0.3243,0.2776,0.2803,0.2839,0.2878,0.2904,0.2934,0.2963,0.2987,0.3023,0.3069,0.308,0.3126,0.3163,0.3223,0.3247,0.3284,0.3281,0.3292,0.3296,0.3299,0.3301,0.3233,0.3292,0.3292,0.3292,0.3292,0.3292,0,0.2827,0.285,0.2886,0.2931,0.2962,0.2965,0.3001,0.3028,0.3067,0.31,0.3135,0.3186,0.3228,0.326,0.3304,0.3327,0.3333,0.3338,0.3338,0.3344,0.33,0.329,0.3334,0.3334,0.3334,0.3334,0.3334,0.3333,0.2857,0.2903,0.2918,0.2978,0.3002,0.3046,0.3067,0.3095,0.3122,0.3177,0.3212,0.3232,0.3266,0.3312,0.3351,0.336,0.3377,0.3382,0.3392,0.3351,0.3346,0.3342,0.3332,0.3385,0.3385,0.3432,0.3433,0.3433]},{"header":{"parameterUnit":"m.s-1","parameterCategory":1,"la1":30.2991,"la2":30.254,"lo1":-89.0895,"lo2":-89.0444,"dy":0.0017,"dx":0.0017,"nx":28,"ny":28,"refTime":"2025-06-20T09:00:00:Z","depth":0,"parameterNumber":3,"parameterNumberName":"V-component_of_WINDS"},"data":[0,0,0,0,0,0,0,0,0,0,0,0,0,0,0,0,0,0,0,0,0,0,0,0,0,0,0,0,0,0,0,0,0,0,0,0,0,0,0,0,0,0,0,0,0,0,0,0,0,0,0,0,0,0,0,0,0,0,-1.0063,-1.0064,0,-1.016,-1.0161,-1.0162,-1.0231,-1.0232,-1.0232,-1.0233,-1.0331,-1.0333,-1.0335,0,0,0,0,0,0,0,0,0,0,0,0,0,-0.9941,-0.9942,-1.0063,-1.0065,-1.0066,-1.0159,-1.0161,-1.0162,-1.0231,-1.0232,-1.0232,-1.0233,-1.0331,-1.0333,-1.0335,0,0,0,0,0,0,0,0,0,0,0,0,0,-1.0011,-0.9943,-1.0063,-1.0111,-1.0117,-1.0159,-1.0161,-1.0162,-1.0231,-1.0232,-1.0233,-1.0233,-1.033,-1.0333,-1.0336,-1.0338,0,0,-1.0345,-1.0347,0,0,0,0,0,0,0,0,-1.0007,-1.0015,-1.0103,-1.0108,-1.0114,-1.0184,-1.0154,-1.0221,-1.0231,-1.0188,-1.0233,-1.0234,-1.0282,-1.0289,-1.0305,-1.0342,-1.0347,-1.0346,-1.0348,-1.0349,-1.035,0,0,0,0,0,0,0,-1.0002,-1.0012,-1.0101,-1.0104,-1.0111,-1.0129,-1.014,-1.0167,-1.0229,-1.0191,-1.0197,-1.0207,-1.0285,-1.0302,-1.0308,-1.0348,-1.0346,-1.0348,-1.035,-1.0351,-1.0393,-1.0392,0,0,0,0,0,0,-0.9989,-1.0007,-1.0098,-1.0104,-1.0062,-1.013,-1.0143,-1.0161,-1.0228,-1.024,-1.0206,-1.021,-1.0296,-1.0304,-1.0311,-1.0318,-1.0349,-1.0352,-1.0354,-1.0394,-1.0393,-1.0392,0,0,0,0,0,0,-0.9986,-0.9997,-1.0095,-1.0057,-1.0071,-1.0131,-1.0152,-1.0162,-1.0179,-1.024,-1.0251,-1.0212,-1.0297,-1.0307,-1.0331,-1.0323,-1.0353,-1.0356,-1.0395,-1.0394,-1.0393,-1.0331,0,0,0,0,0,0,-0.9983,-0.9995,-0.9996,-1.0057,-1.0073,-1.0112,-1.0151,-1.0164,-1.0184,-1.019,-1.0248,-1.0259,-1.0298,-1.0326,-1.0334,-1.0327,-1.0358,-1.0396,-1.0394,-1.0393,-1.0334,-1.0328,-1.0323,0,0,0,0,0,-0.9978,-0.9975,-0.9996,-1.0007,-1.0075,-1.0111,-1.012,-1.0166,-1.0184,-1.0185,-1.0224,-1.0257,-1.0323,-1.0328,-1.0337,-1.0332,-1.0396,-1.0395,-1.0393,-1.0337,-1.033,-1.0323,0,0,0,0,0,0,-0.9912,-0.9984,-1.0008,-1.0024,-1.0061,-1.0123,-1.0126,-1.0157,-1.0189,-1.0193,-1.0249,-1.0262,-1.028,-1.0309,-1.0313,-1.0338,-1.0364,-1.0364,-1.0318,-1.0311,-1.0306,-1.0297,-1.0361,0,0,0,0,0,-0.9899,-0.9922,-0.9984,-0.9993,-1.001,-1.0065,-1.0082,-1.0115,-1.0155,-1.0171,-1.0212,-1.0249,-1.0279,-1.0297,-1.0327,-1.034,-1.0353,-1.0341,-1.0335,-1.033,-1.0329,-1.0338,-1.0333,-1.0386,-1.0386,-1.0386,0,0,-0.9873,-0.9915,-0.9926,-0.9981,-1.0013,-1.0036,-1.0077,-1.01,-1.0117,-1.0174,-1.0199,-1.023,-1.0277,-1.0295,-1.0305,-1.0319,-1.0318,-1.0328,-1.0324,-1.0325,-1.0336,-1.0331,-1.0326,-1.0385,-1.0385,-1.0386,0,0,-0.9837,-0.9871,-0.9882,-0.9914,-0.9963,-1.0,-1.0002,-1.006,-1.0083,-1.0109,-1.0152,-1.0175,-1.0224,-1.0255,-1.0277,-1.0255,-1.0286,-1.0264,-1.0233,-1.0241,-1.0237,-1.0234,-1.0225,-1.0221,-1.0263,-1.0263,-1.0263,0,-0.9798,-0.9834,-0.9884,-0.9904,-0.9927,-0.998,-0.9992,-1.0021,-1.0076,-1.0091,-1.0107,-1.0171,-1.0206,-1.0232,-1.0226,-1.0243,-1.0248,-1.0256,-1.0234,-1.0231,-1.0228,-1.0221,-1.0217,-1.026,-1.026,-1.026,-1.0261,0,-0.9784,-0.9808,-0.9811,-0.9864,-0.9887,-0.9903,-0.9956,-0.9974,-1.0005,-1.004,-1.0066,-1.0111,-1.0151,-1.016,-1.019,-1.0191,-1.0198,-1.0223,-1.025,-1.0219,-1.0213,-1.0211,-1.0255,-1.0256,-1.0257,-1.0258,0,0,-0.9706,-0.9788,-0.9788,-0.9813,-0.9871,-0.9891,-0.991,-0.995,-0.9964,-1.0001,-1.0018,-1.006,-1.0084,-1.0109,-1.0144,-1.0151,-1.013,-1.0175,-1.0177,-1.0164,-1.0133,-1.0113,-1.0108,-1.0152,-1.0152,-1.0151,-1.0129,0,-0.9678,-0.9713,-0.976,-0.978,-0.9803,-0.9856,-0.9872,-0.991,-0.9944,-0.9969,-1.0007,-1.0035,-1.0065,-1.0081,-1.009,-1.013,-1.0124,-1.0133,-1.0168,-1.0168,-1.0152,-1.0105,-1.0084,-1.006,-1.0127,-1.0126,-1.0126,0,-0.9649,-0.9684,-0.9706,-0.9763,-0.9775,-0.9789,-0.9829,-0.9853,-0.9897,-0.9922,-0.9951,-0.9989,-1.0012,-1.0037,-1.0069,-1.0074,-1.0092,-1.0114,-1.0114,-1.0117,-1.0144,-1.0106,-1.0054,-1.0049,-1.0123,-1.0123,-1.0124,0,-0.9589,-0.9642,-0.9662,-0.9682,-0.9749,-0.9758,-0.9786,-0.9832,-0.9853,-0.9889,-0.9904,-0.9942,-0.9962,-0.9992,-1.0039,-1.0053,-1.0066,-1.0096,-1.0087,-1.0085,-1.0085,-1.0084,-1.0033,-1.0099,-1.0099,-1.0099,-1.0099,0,-0.9551,-0.9562,-0.9636,-0.9648,-0.9662,-0.9717,-0.973,-0.9763,-0.9804,-0.9824,-0.9873,-0.989,-0.9953,-0.9978,-1.0016,-1.0036,-1.0046,-1.0066,-1.0075,-1.0061,-1.0058,-1.0071,-1.0074,-1.0098,-1.0098,-1.0099,-1.0099,0,-0.9485,-0.9535,-0.956,-0.9623,-0.9639,-0.9647,-0.9701,-0.9715,-0.9753,-0.9777,-0.9786,-0.9845,-0.9878,-0.9929,-0.9976,-1.0002,-1.0016,-1.0033,-1.0,-1.0006,-0.9994,-0.9994,-0.9948,-0.9945,-1.0014,-1.0013,-1.0012,0,-0.9457,-0.9467,-0.9531,-0.9548,-0.9575,-0.9601,-0.9624,-0.9679,-0.97,-0.9752,-0.976,-0.9797,-0.9828,-0.9878,-0.9925,-0.9962,-0.998,-0.9961,-0.9985,-0.997,-0.9978,-0.9976,-0.9977,-0.9955,-0.9954,-0.9953,-0.9952,0,-0.9401,-0.9426,-0.9456,-0.9494,-0.952,-0.9553,-0.9589,-0.96,-0.9663,-0.9684,-0.9718,-0.9743,-0.9792,-0.9828,-0.9872,-0.9902,-0.9937,-0.9945,-0.9945,-0.9928,-0.9909,-0.9918,-0.9983,-0.9945,-0.9946,-0.9946,-0.9947,-0.9947,-0.9353,-0.9364,-0.9411,-0.9443,-0.9476,-0.9508,-0.9525,-0.9565,-0.9594,-0.9638,-0.967,-0.9702,-0.9748,-0.981,-0.9839,-0.9865,-0.9881,-0.988,-0.988,-0.9879,-0.9873,-0.9906,-0.9874,-0.9874,-0.9874,-0.9874,-0.9875,0,-0.9298,-0.9332,-0.9361,-0.9409,-0.9435,-0.9467,-0.9509,-0.9528,-0.9555,-0.9595,-0.9626,-0.9665,-0.9701,-0.9752,-0.9791,-0.9802,-0.9819,-0.981,-0.9809,-0.9816,-0.9857,-0.9853,-0.9796,-0.9796,-0.9796,-0.9796,-0.9796,-0.9796,-0.9273,-0.9294,-0.9324,-0.9362,-0.9396,-0.9427,-0.9448,-0.9479,-0.9511,-0.9553,-0.9582,-0.9616,-0.966,-0.9704,-0.9738,-0.9752,-0.9763,-0.9749,-0.9768,-0.9805,-0.9813,-0.9819,-0.9816,-0.9752,-0.9751,-0.9724,-0.9724,-0.9724]}]]